Regional Weather Roundup
Issued by NWS Cleveland, OH

Home | Current Version | Previous Version | Graphics & Text | Print | Product List | Glossary On
Versions: 1 2 3 4 5 6 7 8 9 10 11 12 13 14 15 16 17 18 19 20 21 22 23 24 25 26 27 28 29 30 31 32 33 34 35 36 37 38 39 40 41 42 43 44 45 46 47 48 49 50
000
ASUS41 KCLE 020810
RWRCLE
OHIO REGIONAL WEATHER ROUNDUP
NATIONAL WEATHER SERVICE WILMINGTON, OH
400 AM EDT WED SEP 02 2015

NOTE: "FAIR" INDICATES FEW OR NO CLOUDS BELOW 12,000 FEET WITH NO
SIGNIFICANT WEATHER AND/OR OBSTRUCTIONS TO VISIBILITY.

OHZ001>008-015>018-024>027-034-035-043-044-020900-
   NORTHWEST OHIO

CITY           SKY/WX    TMP DP  RH WIND       PRES   REMARKS
DEFIANCE       CLEAR     69  66  90 S3        30.07F
FINDLAY        CLEAR     67  64  90 S5        30.08S
TOLEDO EXPRESS CLEAR     70  66  87 SW5       30.06S
TOLEDO EXEC    CLEAR     70  65  84 SW6       30.07S
LIMA           CLEAR     69  65  86 CALM      30.10S
$$

OHZ009>014-019>023-028>033-038-089-020900-
   NORTHEAST OHIO

CITY           SKY/WX    TMP DP  RH WIND       PRES   REMARKS
CLE-HOPKINS    PTCLDY    71  66  84 SW5       30.10S
CLE-LAKEFRONT  FAIR      75  67  76 S5        30.06S
CUY CO. ARPT   NOT AVBL
LORAIN-ELYRIA  CLEAR     66  64  93 S3        30.09S FOG
ASHTABULA      PTCLDY    67  66  97 CALM      30.09S
AKRON-CANTON   MOCLDY    72  67  84 W3        30.11S HAZE
WOOSTER        PTCLDY    65  64  97 CALM      30.11S FOG
MANSFIELD      PTCLDY    68  65  90 SW5       30.11S
YOUNGSTOWN     CLOUDY    68  64  87 CALM      30.10S
$$

OHZ042-051>053-060>062-070>072-077>081-020900-
  SOUTHWEST OHIO

CITY           SKY/WX    TMP DP  RH WIND       PRES   REMARKS
CINC-COVINGTON CLEAR     69  66  90 CALM      30.11S FOG
CINC-LUNKEN    FOG       66  66 100 CALM      30.11R VSB 1
HAMILTON       CLEAR     67  65  93 CALM      30.11S FOG
DAYTON         PTCLDY    69  67  93 SW3       30.12S
WRIGHT-PAT AFB CLEAR     66  66 100 CALM      30.10S
DAYTON GENERAL CLEAR     67  63  87 CALM      30.11R
WILMINGTON     CLEAR     65  63  93 CALM      30.11F FOG
$$

OHZ036-037-039>041-045>050-054>059-063>069-073>076-082>088-020900-
  CENTRAL AND SOUTHEAST OHIO

CITY           SKY/WX    TMP DP  RH WIND       PRES   REMARKS
COLUMBUS       PTCLDY    71  67  87 CALM      30.10R
OSU AIRPORT    PTCLDY    70  67  90 SW3       30.10S
BOLTON FIELD   PTCLDY    67  67  99 CALM      30.10F
RICKENBACK AFB PTCLDY    66  65  96 CALM      30.10S FOG
NEWARK         CLEAR     65  63  93 CALM      30.10S FOG
MARION         CLEAR     67  64  90 S3        30.10F FOG
LANCASTER      PTCLDY    63  61  93 CALM      30.11S FOG
ZANESVILLE     MOCLDY    68  65  90 CALM      30.10S FOG
NEW PHILLY     MOCLDY    68  67  96 CALM      30.10S FOG
$$



USA.gov is the U.S. government's official web portal to all federal, state and local government web resources and services.